Regional Weather Roundup
Issued by NWS Jackson, KY

Home | Current Version | Previous Version | Graphics & Text | Print | Product List | Glossary On
Versions: 1 2 3 4 5 6 7 8 9 10 11 12 13 14 15 16 17 18 19 20 21 22 23 24 25 26 27
000
ASUS43 KJKL 231310
RWRJKL

EAST KENTUCKY HOURLY WEATHER ROUNDUP
NATIONAL WEATHER SERVICE JACKSON KY
800 AM EST THU FEB 23 2017

NOTE: "FAIR" INDICATES FEW OR NO CLOUDS BELOW 12,000 FEET WITH
NO SIGNIFICANT WEATHER AND/OR OBSTRUCTIONS TO VISIBILITY.

* THESE REPORTS ARE NOT UNDER NWS QUALITY CONTROL AND MAY NOT
  REPORT WEATHER SUCH AS PRECIPITATION AND FOG.

KYZ079-080-083-085-087-088-110-112-115-119-120-231400
...EASTERN KENTUCKY...

CITY           SKY/WX    TMP DP  RH WIND       PRES   REMARKS
JACKSON        CLOUDY    55  52  89 CALM      29.90R
LONDON         CLOUDY    50  48  93 CALM      29.91R FOG
SOMERSET*      CLOUDY    52  52 100 CALM      29.91R FOG
MONTICELLO*    CLOUDY    46  46 100 VRB5      29.91R FOG
WILLIAMSBURG*  MOSUNNY   46  46 100 CALM      29.91R
MIDDLESBORO*   CLOUDY    46  46 100 CALM      29.94R FOG
HARLAN APT*    CLOUDY    46  46 100 CALM      29.94R VSB 1/4
PIKE CO APT*   CLOUDY    52  52 100 CALM      29.91R
BIG SANDY APT* CLOUDY    54  53  96 CALM      29.90S
MOREHEAD APT*  CLOUDY    55  54  94 SE3       29.89R
ASHLAND*       CLOUDY    54  52  94 CALM      29.86R
$$

KYZ035-036-041-042-044-050-067-078-099-231400
...CENTRAL KENTUCKY...

CITY           SKY/WX    TMP DP  RH WIND       PRES   REMARKS
MT STERLING*   CLOUDY    55  54  94 SW8       29.88S
FLEMING/MASON* CLOUDY    56  54  95 S7        29.87R
DANVILLE*      CLOUDY    54  54 100 S5        29.89R
LEXINGTON      CLOUDY    56  53  90 S8        29.86S
FRANKFORT      MOCLDY    57  53  86 S5        29.84R
LOUISVILLE     CLOUDY    62  56  80 S7        29.82S
LEBANON*       PTSUNNY   57  55  94 S8        29.86S
GLASGOW*       CLOUDY    56  56 100 S3        29.86S
BOWLING GREEN  CLOUDY    58  55  90 S3        29.85S
$$

KYZ091>093-OHZ055-061-077-WVZ005-015-034-035-042-231400
...SOUTHERN OHIO/WEST VIRGINIA...

CITY           SKY/WX    TMP DP  RH WIND       PRES   REMARKS
COVINGTON      CLOUDY    59  56  89 S9        29.81S
COLUMBUS       PTCLDY    57  54  89 S8        29.80R
DAYTON         PTCLDY    56  54  93 SW13      29.78S
WILMINGTON     CLOUDY    57  55  93 S8        29.81R
HUNTINGTON     CLOUDY    54  51  90 S6        29.87R
CHARLESTON     CLOUDY    50  49  96 CALM      29.89R
PINEVILLE*     FOG       46  43  91 MISG      29.98R VSB 1/2
BECKLEY        PTCLDY    50  47  89 CALM      29.94R
BLUEFIELD      PTCLDY    48  47  96 SE3       29.95S
LOGAN CO APT*  CLOUDY    52  52 100 CALM      29.91R
$$

VAZ002-007-008-TNZ017-027-036-066-071-231400
...SOUTHWEST VIRGINIA/EAST TENNESSEE...

CITY           SKY/WX    TMP DP  RH WIND       PRES   REMARKS
WISE*          CLOUDY    52  52 100 CALM      29.96R
JONESVILLE*    PTSUNNY   45  45 100 CALM      29.97R FOG
ABINGDON*      PTCLDY    47  47 100 E5        29.95R
BRISTOL        MOCLDY    44  43  96 CALM      29.95R FOG
MORRISTOWN*    CLOUDY    48  48 100 CALM      29.93R FOG
SEVIERVILLE*   CLOUDY    48  48 100 CALM      29.92R
KNOXVILLE      FOG       53  52  96 N3        29.91R VSB 1/8
LAFOLLETTE*    FOG       52  52 100 CALM      29.96R VSB 0
OAK RIDGE      FOG       52  51  97 CALM      29.94R VSB 1/4
CROSSVILLE     CLOUDY    56  53  90 S5        29.92R
NASHVILLE      PTCLDY    55  53  93 CALM      29.87R FOG
$$

...KEY TO REMARKS...
VSB - VISIBILITY IN MILES
WCI - WIND CHILL INDEX
HX  - HEAT INDEX

$$




USA.gov is the U.S. government's official web portal to all federal, state and local government web resources and services.